Other Surface Observations
Issued by NWS

Home | Current Version | Previous Version | Text Only | Print | Product List | Glossary On
Versions: 1 2 3 4 5 6 7 8 9 10 11 12 13 14 15 16 17 18 19 20 21 22 23 24 25 26 27 28 29 30 31 32 33 34 35 36 37 38 39 40 41 42 43 44 45 46 47 48 49 50
000
SXUS52 KTAE 241318
OSOTAE
OSOTAE
North Florida/South Alabama/Southwest Georgia Weather Roundup
National Weather Service Tallahassee Florida
900 AM EDT FRI OCT 24 2014

Note: "fair" indicates few or no clouds below 12,000 feet with no
significant weather and/or obstructions to visibility.

!FLZ017-115-028-034-025-241400
...North Florida...

CITY           SKY/WX    TMP DP  RH WIND       PRES   REMARKS
TALLAHASSEE    PTSUNNY   52  46  80 CALM      30.06R
APALACHICOLA   MOSUNNY   58  50  75 N5        30.05R
PERRY          PTSUNNY   50  46  87 CALM      30.06R
CROSS CITY       N/A     55  52  89 CALM      30.04R
JACKSONVILLE   CLOUDY    54  50  86 NW3       30.04R
$$

!FLZ112-006-005-002-011-241400
...Florida Panhandle...

CITY           SKY/WX    TMP DP  RH WIND       PRES   REMARKS
MARIANNA       LGT RAIN  52  51  97 NW3       30.06R
BONIFAY        NOT AVBL
PANAMA CITY NW FAIR      55  50  83 NW3       30.05R
TYNDALL AFB    SUNNY     57  52  83 NE2       30.07R
TYND DRONE APT FAIR      57  53  86 MISG      30.05R
DE FUNIAK SPR  FAIR      53  47  79 N5        30.08R
EGLIN AFB      PTSUNNY   57  46  68 NE5       30.06S
DESTIN         SUNNY     62  50  64 NE5       30.07S
HURLBURT       MOSUNNY   56  45  67 N5        30.06S
CRESTVIEW      SUNNY     49  47  93 CALM      30.08S
PENSACOLA      MOSUNNY   56  48  74 N9        30.07R
$$

!ALZ063-066-241400
...South Alabama...

CITY           SKY/WX    TMP DP  RH WIND       PRES   REMARKS
DOTHAN         SUNNY     52  47  83 N5        30.10R
OZARK CAIRNS   MOSUNNY   52  46  82 NW5       30.07R
FT RUCKER HELI SUNNY     47  46  97 CALM      30.07R
RUCKER HELI 3  FAIR      50  47  91 NW2       30.10R
RUCKER HELI 2  FAIR      50  47  89 CALM      30.07R
FLORALA APT    SUNNY     52  48  86 CALM      30.09R
ANDALUSIA      SUNNY     55  47  74 CALM      30.08R
TROY           MOSUNNY   46  44  93 CALM      30.08S
EUFALA         FAIR      50  47  89 CALM      30.07S
MOBILE         MOSUNNY   54  49  83 N5        30.09S
$$

!GAZ120>161-241400
...Southwest and South Central Georgia...

CITY           SKY/WX    TMP DP  RH WIND       PRES   REMARKS
THOMASVILLE    FAIR      54  54 100 CALM      30.07R
BAINBRIDGE     MOSUNNY   54  54 100 CALM      30.06S
MOODY AFB      PTSUNNY   51  48  89 NW2       30.06R
VALDOSTA       PTSUNNY   49  46  90 CALM      30.06R
MOULTRIE       PTSUNNY   54  52  94 CALM      30.07R
BLAKELY        MOSUNNY   52  52 100 CALM        N/A
ALBANY         MOSUNNY   54  51  90 CALM      30.08R
TIFTON         FAIR      53  50  90 CALM      30.06S
FITZGERALD     FAIR      54  49  85 CALM      30.09S
CORDELE        FAIR      52  49  89 CALM      30.08R
AMERICUS       FAIR      50  48  93 CALM      30.08S
HOMERVILLE     FAIR      52  50  93 CALM      30.06R
$$

!GMZ750-755-770-775-241400
...Coastal and Buoy Obs...

STATION/POSITION TIME  TEMP    WIND        PRES    VSBY  WAVE
                       AIR SEA DIR/SP/G                  HT/PER
                 (UTC) (F)     (DEG/KT/KT) (MB)    (MI)  (FT/S)
KEATON BEACH     1300   53      20/  2/  3 1017.9R
CEDAR KEY        1255   61      40/  5/  7 1017.3R
C TOWER          1300   69      20/ 12/ 13 1017.1R
APALACHICOLA BUO 1300   73 80   60/ 10/ 14 1016.0R         2/ 5
PANAMA CITY BUOY 1225   72 80   20/  8/ 12 1017.0R         3/ 5
MOBILE BUOY      1244   71 78   10/ 14/ 17 1018.2R         3/ 6
ORANGE BCH AL BU 1300   68 78   40/ 14/ 16 1017.6R         2/ 4
$$



USA.gov is the U.S. government's official web portal to all federal, state and local government web resources and services.